Regional Weather Roundup
Issued by NWS Newport/Morehead, NC

Current Version | Previous Version | Graphics & Text | Print | Product List | Glossary Off
Versions: 1 2 3 4 5 6 7 8 9 10 11 12 13 14 15 16 17 18 19 20 21 22 23 24 25 26 27 28 29 30 31 32 33 34 35 36 37 38 39 40 41 42 43 44 45 46 47 48 49 50

000
ASUS42 KMHX 150822
RWRMHX
WEATHER ROUNDUP FOR EASTERN NORTH CAROLINA
NATIONAL WEATHER SERVICE NEWPORT/MOREHEAD CITY NC
400 AM EDT TUE APR 15 2014

NOTE: "FAIR" INDICATES FEW OR NO CLOUDS BELOW 12,000 FEET
WITH NO SIGNIFICANT WEATHER AND/OR OBSTRUCTIONS TO VISIBILITY

NCZ015>017-031-032-045>047-102-103-150900-
NORTH COAST

CITY           SKY/WX    TMP DP  RH WIND       PRES   REMARKS
EDENTON        LGT RAIN  67  66  96 S12       29.83F
ELIZABETH CITY LGT RAIN  68  65  90 S10       29.85F
KITTY HAWK     CLOUDY    67  66  96 S8G21     29.86F FOG
MANTEO         CLOUDY    68  65  91 S18G24    29.87F

$$

NCZ045>047-081-094-103-104-150900-
CENTRAL COAST

CITY           SKY/WX    TMP DP  RH WIND       PRES   REMARKS
FRISCO         CLOUDY    68  64  87 S16G24    29.90F
SWANQUARTER      N/A     68 N/A N/A SE8G14    29.82F

$$

NCZ095-097-098-100-101-150900-
SOUTHERN COAST

CITY           SKY/WX    TMP DP  RH WIND       PRES   REMARKS
BEAUFORT       CLOUDY    68  66  93 S14       29.86F FOG
CEDAR ISLAND     N/A     68 N/A N/A S10G18    29.91S
JACKSONVILLE   CLOUDY    70  70 100 S10       29.84F
NEWPORT          N/A     68  66  94 S7          N/A
PINEY ISLAND   NOT AVBL
WILMINGTON     CLOUDY    72  67  84 S12       29.83F


$$

NCZ011>013-027>030-043-044-078>080-089-090>093-098-150900-
COASTAL PLAIN

CITY           SKY/WX    TMP DP  RH WIND       PRES   REMARKS
AHOSKIE        CLOUDY    69  64  84 S8        29.81F
CLINTON        CLOUDY    70  69  95 S3        29.80F
ELIZABETHTOWN  CLOUDY    71  69  93 S9G18     29.80F
GOLDSBORO      CLOUDY    70  70  98 S10G17    29.79F
GREENVILLE     CLOUDY    70  66  88 S12G18    29.84F
HAVELOCK       CLOUDY    70  66  87 S12       29.87F
KENANSVILLE    CLOUDY    70  66  88 SE3       29.82F
KINSTON        CLOUDY    71  67  88 S13       29.83F
NEW BERN       CLOUDY    72  67  84 S17G24    29.86F
RICHLANDS      CLOUDY    70  66  88 S14G22    29.83F
ROANOKE RAPIDS NOT AVBL
ROCKY MOUNT      N/A    N/A N/A N/A MISG      29.79F
WASHINGTON     MOCLDY    73  68  84 S12       29.83F
WHITEVILLE     LGT RAIN  71  68  90 S12       29.80F

$$

AMZ130-135-150-152-154-156-158-170-250-252-270-ANZ085-086-088-633-658-670-150900-
MARINE OBSERVATIONS

STATION/POSITION TIME  TEMP    WIND        PRES    WAVE   SWELL
                       AIR SEA DIR/SP/G            HT/PER HT/PER
                 (UTC) (F)     (DEG/KT/KT) (MB)    (FT/S) (FT/S)
CHESAPEAKE LIGHT 0800   58     170/ 25/ 26 1010.5
BUOY 44014       0800   62 52  170/ 19/ 23 1012.0    8/ 8
DUCK             0800   66 47  180/ 15/ 18 1010.1
2E DUCK          0800      47                N/A     4/ 8
OREGON INLET     0800   70 70  160/ 15/ 22 1011.6
BUOY 44095       0800      65                N/A     8/ 8
HATTERAS CG      0800   69 66  160/ 13/ 18 1012.3
DIAMOND BUOY     NOT AVBL
CAPE LOOKOUT     0800   65     170/ 14/ 15 1011.4
BEAUFORT LAB     0800   67 66  180/ 13/ 16 1010.4
30 SE NEW RIVER  0800   69 63  190/ 17/ 21 1011.3    9/ 7
5 SE WRIGHTSVILL 0800   67 64  190/ 12/ 16 1010.2
FRYING PAN BUOY  0800   71 66  180/ 16/ 19 1010.4    8/ 8
BUOY 41001       NOT AVBL
BUOY 41002       NOT AVBL
BUOY 41004       NOT AVBL

$$



USA.gov is the U.S. government's official web portal to all federal, state and local government web resources and services.